• In Hungary
  • List of Countries
  • For 7 days
  • Water Temperature
  • Satellite Maps
  • Weather Map
  • News
  • Weather Widgets
  • user-avatar
    Login

    Hourly Weather Malinovka

    Today, 22 May, Tuesday

    Time Temperature Precipitation Wind Pressure Humidity
    00:00 +10°C° 0 mm 1 mps 762 mmHg 66%
    01:00 +10°C° 0 mm 1 mps 762 mmHg 66%
    02:00 +9°C° 0 mm 1 mps 762 mmHg 67%
    03:00 +9°C° 0 mm 1 mps 762 mmHg 69%
    04:00 +10°C° 0 mm 1 mps 762 mmHg 66%
    05:00 +12°C° 0 mm 1 mps 762 mmHg 64%
    06:00 +13°C° 0 mm 1 mps 763 mmHg 61%
    07:00 +15°C° 0 mm 2 mps 763 mmHg 55%
    08:00 +18°C° 0 mm 2 mps 763 mmHg 50%
    09:00 +20°C° 0 mm 2 mps 763 mmHg 44%
    10:00 +21°C° 0 mm 2 mps 763 mmHg 42%
    11:00 +23°C° 0 mm 2 mps 763 mmHg 39%
    12:00 +25°C° 0 mm 2 mps 763 mmHg 36%
    13:00 +25°C° 0 mm 2 mps 762 mmHg 36%
    14:00 +25°C° 0 mm 2 mps 762 mmHg 35%
    15:00 +26°C° 0 mm 2 mps 762 mmHg 35%
    16:00 +25°C° 0 mm 2 mps 762 mmHg 39%
    17:00 +24°C° 0 mm 2 mps 761 mmHg 43%
    18:00 +24°C° 0 mm 1 mps 761 mmHg 48%
    19:00 +20°C° 0 mm 2 mps 761 mmHg 53%
    20:00 +18°C° 0 mm 2 mps 761 mmHg 58%
    21:00 +15°C° 0 mm 2 mps 761 mmHg 63%
    22:00 +15°C° 0 mm 2 mps 761 mmHg 64%
    23:00 +14°C° 0 mm 2 mps 761 mmHg 66%

    Tomorrow, 23 May, Wednesday

    Time Temperature Precipitation Wind Pressure Humidity
    00:00 +13°C° 0 mm 2 mps 761 mmHg 67%
    01:00 +13°C° 0 mm 2 mps 761 mmHg 67%
    02:00 +13°C° 0 mm 2 mps 761 mmHg 67%
    03:00 +12°C° 0 mm 2 mps 761 mmHg 68%
    04:00 +13°C° 0 mm 2 mps 761 mmHg 67%
    05:00 +14°C° 0 mm 2 mps 760 mmHg 66%
    06:00 +15°C° 0 mm 2 mps 760 mmHg 65%
    07:00 +17°C° 0 mm 3 mps 760 mmHg 60%
    08:00 +19°C° 0 mm 3 mps 760 mmHg 56%
    09:00 +20°C° 0 mm 3 mps 760 mmHg 51%
    10:00 +21°C° 0 mm 4 mps 759 mmHg 49%
    11:00 +22°C° 0 mm 4 mps 759 mmHg 46%
    12:00 +23°C° 0 mm 4 mps 759 mmHg 44%
    13:00 +25°C° 0 mm 5 mps 758 mmHg 44%
    14:00 +25°C° 0 mm 5 mps 757 mmHg 45%
    15:00 +26°C° 0 mm 5 mps 757 mmHg 45%
    16:00 +25°C° 0.1 mm 5 mps 756 mmHg 51%
    17:00 +23°C° 0.1 mm 5 mps 756 mmHg 57%
    18:00 +22°C° 0.1 mm 4 mps 755 mmHg 63%
    19:00 +21°C° 0.6 mm 4 mps 755 mmHg 71%
    20:00 +19°C° 0.6 mm 3 mps 755 mmHg 80%
    21:00 +17°C° 0.6 mm 3 mps 755 mmHg 88%
    22:00 +17°C° 0.1 mm 3 mps 755 mmHg 90%
    23:00 +16°C° 0.1 mm 3 mps 754 mmHg 92%

    Day after tomorrow, 24 May, Thursday

    Time Temperature Precipitation Wind Pressure Humidity
    00:00 +16°C° 0.1 mm 3 mps 754 mmHg 93%
    01:00 +16°C° 0 mm 2 mps 754 mmHg 94%
    02:00 +15°C° 0 mm 2 mps 754 mmHg 96%
    03:00 +15°C° 0 mm 2 mps 754 mmHg 97%
    04:00 +16°C° 0 mm 2 mps 754 mmHg 94%
    05:00 +16°C° 0 mm 2 mps 754 mmHg 92%
    06:00 +17°C° 0 mm 2 mps 754 mmHg 89%
    07:00 +19°C° 0.1 mm 2 mps 754 mmHg 81%
    08:00 +20°C° 0.1 mm 2 mps 753 mmHg 73%
    09:00 +23°C° 0.1 mm 2 mps 753 mmHg 65%
    10:00 +24°C° 0.2 mm 2 mps 753 mmHg 59%
    11:00 +25°C° 0.2 mm 2 mps 753 mmHg 53%
    12:00 +26°C° 0.2 mm 3 mps 753 mmHg 47%
    13:00 +26°C° 0.3 mm 3 mps 752 mmHg 48%
    14:00 +25°C° 0.3 mm 3 mps 752 mmHg 50%
    15:00 +25°C° 0.3 mm 4 mps 752 mmHg 51%
    16:00 +22°C° 0.7 mm 4 mps 752 mmHg 60%
    17:00 +20°C° 0.7 mm 4 mps 752 mmHg 70%
    18:00 +19°C° 0.7 mm 4 mps 752 mmHg 79%
    19:00 +17°C° 0.1 mm 4 mps 752 mmHg 80%
    20:00 +15°C° 0.1 mm 4 mps 753 mmHg 81%
    21:00 +14°C° 0.1 mm 3 mps 753 mmHg 83%
    22:00 +13°C° 0 mm 4 mps 753 mmHg 79%
    23:00 +12°C° 0 mm 4 mps 753 mmHg 75%

    25 May, Friday

    Time Temperature Precipitation Wind Pressure Humidity
    00:00 +11°C° 0 mm 4 mps 754 mmHg 71%
    01:00 +10°C° 0 mm 4 mps 754 mmHg 69%
    02:00 +8°C° 0 mm 4 mps 754 mmHg 66%
    03:00 +7°C° 0 mm 4 mps 755 mmHg 63%
    04:00 +7°C° 0 mm 5 mps 755 mmHg 61%
    05:00 +8°C° 0 mm 5 mps 755 mmHg 59%
    06:00 +8°C° 0 mm 5 mps 756 mmHg 58%
    07:00 +9°C° 0 mm 5 mps 756 mmHg 54%
    08:00 +9°C° 0 mm 5 mps 756 mmHg 51%
    09:00 +10°C° 0 mm 5 mps 757 mmHg 47%
    10:00 +12°C° 0 mm 5 mps 757 mmHg 45%
    11:00 +11°C° 0 mm 6 mps 757 mmHg 43%
    12:00 +13°C° 0 mm 6 mps 757 mmHg 41%
    13:00 +13°C° 0 mm 6 mps 757 mmHg 40%
    14:00 +13°C° 0 mm 6 mps 758 mmHg 39%
    15:00 +13°C° 0 mm 6 mps 758 mmHg 38%
    16:00 +13°C° 0 mm 6 mps 758 mmHg 40%
    17:00 +12°C° 0 mm 5 mps 758 mmHg 42%
    18:00 +12°C° 0 mm 5 mps 759 mmHg 43%
    19:00 +10°C° 0 mm 4 mps 759 mmHg 48%
    20:00 +8°C° 0 mm 3 mps 760 mmHg 52%
    21:00 +7°C° 0 mm 3 mps 760 mmHg 56%
    22:00 +5°C° 0 mm 3 mps 760 mmHg 57%
    23:00 +5°C° 0 mm 3 mps 761 mmHg 58%

    26 May, Saturday

    Time Temperature Precipitation Wind Pressure Humidity
    00:00 +4°C° 0 mm 3 mps 761 mmHg 60%
    01:00 +3°C° 0 mm 3 mps 762 mmHg 62%
    02:00 +4°C° 0 mm 2 mps 762 mmHg 64%
    03:00 +3°C° 0 mm 2 mps 762 mmHg 66%
    04:00 +4°C° 0 mm 2 mps 763 mmHg 63%
    05:00 +6°C° 0 mm 2 mps 763 mmHg 60%
    06:00 +7°C° 0 mm 2 mps 763 mmHg 58%
    07:00 +9°C° 0 mm 2 mps 763 mmHg 52%
    08:00 +12°C° 0 mm 2 mps 763 mmHg 46%
    09:00 +13°C° 0 mm 2 mps 763 mmHg 40%
    10:00 +14°C° 0 mm 3 mps 763 mmHg 39%
    11:00 +16°C° 0 mm 3 mps 763 mmHg 37%
    12:00 +17°C° 0 mm 3 mps 763 mmHg 35%
    13:00 +18°C° 0 mm 3 mps 762 mmHg 37%
    14:00 +19°C° 0 mm 3 mps 762 mmHg 38%
    15:00 +19°C° 0 mm 3 mps 761 mmHg 40%
    16:00 +19°C° 0 mm 3 mps 761 mmHg 44%
    17:00 +19°C° 0 mm 3 mps 760 mmHg 48%
    18:00 +20°C° 0 mm 2 mps 760 mmHg 52%
    19:00 +18°C° 0 mm 2 mps 760 mmHg 56%
    20:00 +17°C° 0 mm 3 mps 760 mmHg 60%
    21:00 +14°C° 0 mm 3 mps 759 mmHg 64%
    22:00 +14°C° 0 mm 3 mps 759 mmHg 65%
    23:00 +14°C° 0 mm 3 mps 759 mmHg 66%

    27 May, Sunday

    Time Temperature Precipitation Wind Pressure Humidity
    00:00 +14°C° 0 mm 3 mps 759 mmHg 67%
    01:00 +14°C° 0 mm 4 mps 759 mmHg 67%
    02:00 +13°C° 0 mm 4 mps 759 mmHg 67%
    03:00 +13°C° 0 mm 4 mps 759 mmHg 66%
    04:00 +14°C° 0 mm 4 mps 758 mmHg 67%
    05:00 +14°C° 0 mm 5 mps 758 mmHg 67%
    06:00 +14°C° 0 mm 5 mps 758 mmHg 67%
    07:00 +16°C° 0 mm 5 mps 758 mmHg 62%
    08:00 +19°C° 0 mm 6 mps 757 mmHg 57%
    09:00 +20°C° 0 mm 6 mps 757 mmHg 52%
    10:00 +21°C° 0 mm 7 mps 756 mmHg 48%
    11:00 +22°C° 0 mm 7 mps 756 mmHg 44%
    12:00 +23°C° 0 mm 8 mps 755 mmHg 40%
    13:00 +23°C° 0 mm 8 mps 755 mmHg 41%
    14:00 +23°C° 0 mm 7 mps 755 mmHg 41%
    15:00 +23°C° 0 mm 7 mps 754 mmHg 42%
    16:00 +21°C° 0.3 mm 7 mps 754 mmHg 51%
    17:00 +19°C° 0.3 mm 6 mps 754 mmHg 60%
    18:00 +17°C° 0.3 mm 5 mps 754 mmHg 69%
    19:00 +15°C° 0.3 mm 4 mps 754 mmHg 74%
    20:00 +14°C° 0.3 mm 3 mps 755 mmHg 79%
    21:00 +13°C° 0.3 mm 2 mps 755 mmHg 84%
    22:00 +12°C° 0 mm 2 mps 755 mmHg 84%
    23:00 +10°C° 0 mm 2 mps 756 mmHg 85%
    Show more